RAF Lakenheath

Airport
ICAO code: 
EGUL
Summary
ICAO Region: 
EUR
Territory: 
Location: 
Lakenheath, Suffolk, England,
Elevation: 
32 ft
Coordinates: 
Aerial View: 
52° 24' 33.486" N, 0° 33' 39.6" E
Metar
Observation
EGUL 050731Z AUTO 33014G20KT 9999 -RA BKN008 OVC012 04/04 A2953 RMK AO2 CIG 008V012 BKN V SCT SLP004 $
Station
Lakenheath Royal Air Force Base
Date/Time
2021-12-05 07:31:00
Wind direction
330°
Wind speed
14 kts
Lowest cloud amount
broken clouds
Temperature
4°C
Dew point
4°C
Humidity
100%
Weather condition
light rain

Description

Royal Air Force Station Lakenheath, commonly abbreviated to RAF Lakenheath, is a military airbase hosting USAF forces near Lakenheath in Suffolk, England.

Climatology

Temperate Marine climate/Oceanic climate (Köppen climate classification Cfb) - Moderately cool summer and comparatively warm winter.

Runways

Designator Length Width Surface Rops
6/24 2743 46 PEM No/No
Airport map: 
Aerial View: 

SKYbrary Partners:

Safety knowledge contributed by: